Location: Vinland
(47.7731°N, 122.6974°W)
Time: 19:49:44
(UTC+00:00)

Vanguard 1 Rocket - Pass Details

Date: 26 March 2023
Orbit: 655 x 4220 km, 34.3° (Epoch: 05 June)

Event Time Altitude Azimuth Distance (km) Brightness Sun altitude
Rises 04:46:35 0° 208° (SSW) 8,430 12.3 -22.4°
Reaches altitude 10° 04:53:50 10° 199° (SSW) 7,399 11.9 -23.5°
Maximum altitude 05:13:00 30° 150° (SSE) 5,105 10.6 -26.1°
Enters shadow 05:13:19 30° 148° (SSE) 5,085 10.6 -26.2°
